Regional Weather Roundup
Issued by NWS Raleigh/Durham, NC

Current Version | Previous Version | Text Only | Print | Product List | Glossary On
Versions: 1 2 3 4 5 6 7 8 9 10 11 12 13 14 15 16 17 18 19 20 21 22 23 24 25 26 27 28
000
ASUS42 KRAH 301310
RWRRAH
NORTH CAROLINA WEATHER ROUNDUP
NATIONAL WEATHER SERVICE RALEIGH NC
900 AM EDT MON MAY 30 2016

NOTE: "FAIR" INDICATES FEW OR NO CLOUDS BELOW 12,000 FEET WITH NO
SIGNIFICANT WEATHER AND/OR OBSTRUCTIONS TO VISIBILITY.

NCZ001-053-055-056-065-067-301400-
WESTERN NORTH CAROLINA

CITY           SKY/WX    TMP DP  RH WIND       PRES   REMARKS
ASHEVILLE      SUNNY     67  57  70 N9        30.10R
JEFFERSON      SUNNY     62  57  84 CALM      30.14R
MORGANTON      SUNNY     65  60  84 CALM      30.10S
HICKORY        PTSUNNY   69  62  78 NE5       30.06R
RUTHERFORDTON  SUNNY     68  63  84 CALM      30.06S
MOUNT AIRY     MOSUNNY   69  66  92 NW5       30.09R
BOONE          CLOUDY    64  52  65 W6        30.14S
$$

NCZ021-022-025-041-071-084-088-301400-
CENTRAL NORTH CAROLINA

CITY           SKY/WX    TMP DP  RH WIND       PRES   REMARKS
CHARLOTTE      PTSUNNY   70  63  78 N10       30.03R
GREENSBORO     CLOUDY    67  63  87 NE10      30.04R
WINSTON-SALEM  CLOUDY    67  62  84 NE10      30.06R
RALEIGH-DURHAM FOG       68  67  96 NE5       30.02R VSB 1/4
FORT BRAGG     LGT RAIN  72  72 100 NE7       29.97F
FAYETTEVILLE   CLOUDY    73  71  93 NE9       29.97S FOG
BURLINGTON     CLOUDY    67  64  90 N6        30.03S
LAURINBURG     CLOUDY    72  70  93 NE9       29.97S FOG
$$

NCZ011-015-027-028-043-044-047-080-103-301400-
NORTHEASTERN NORTH CAROLINA

CITY           SKY/WX    TMP DP  RH WIND       PRES   REMARKS
ROCKY MT-WILSO CLOUDY    77  72  84 CALM      30.01S
GREENVILLE     CLOUDY    75  72  88 SE6       30.03S
WASHINGTON     LGT RAIN  73  72  96 SE3       30.01S
ELIZABETH CITY LGT RAIN  72  71  97 SE7       30.03R
MANTEO         NOT AVBL
CAPE HATTERAS  HVY RAIN  71  70  96 CALM      30.03S VSB 1
$$

NCZ078-087-090-091-093-098-101-301400-
SOUTHEASTERN NORTH CAROLINA

CITY           SKY/WX    TMP DP  RH WIND       PRES   REMARKS
LUMBERTON      CLOUDY    75  71  87 E7        29.95S
GOLDSBORO      NOT AVBL
KINSTON        MOSUNNY   75  72  88 E7        30.01S
KENANSVILLE    CLOUDY    74  73  97 CALM      30.00S
NEW BERN       LGT RAIN  73  70  90 SE5       30.02R
CHERRY POINT   CLOUDY    73  70  90 E8        30.01S
BEAUFORT       CLOUDY    72  70  93 E6        30.01S
JACKSONVILLE   CLOUDY    76  72  87 E9        29.98S
WILMINGTON     MOSUNNY   78  71  79 SE10      29.96F
$$





USA.gov is the U.S. government's official web portal to all federal, state and local government web resources and services.